www.pogodaiklimat.ru

Погода и климат >> Архив погоды >> Индия >> Тамилнад >> Адирампаттинам


ПОГОДА в Адирампаттинаме

  • Прогноз погоды в Адирампаттинаме
  • Монитор погоды в Адирампаттинаме

АРХИВ ПОГОДЫ в Адирампаттинаме

Время (UTC), дата Ветер
(напр.,м/с)
 
Видим.   Явления Облачность Т
(С)
Тd
(С)
f
(%)
Тe
(С)
Тes
(С)
Комфортность P
(гПа)
Po
(гПа)
Тmin
(С)
Tmax
(С)
R
(мм)
R24
(мм)
S
(см)
18 19.05 Ю 4 4000 м 3/1 600 м
[Sc Ci sp]
+30.2 +26.6 81 +47 +47 опасность
перегрева
1009.1 1008.4
21 19.05 Ю 5 4000 м 6/4 600 м
[Sc Ci sp]
+29.8 +26.2 81 +45 +45 опасность
перегрева
1008.0 1007.3
00 20.05 Ю 3 4000 м 8/3 600 м
[Sc diur, vesp Cs]
+29.6 +25.7 80 +44 +44 опасность
перегрева
1008.1 1007.4
03 20.05 Ю 3 10 км 5/5 600 м
[Cu hum]
+32.4 +26.6 72 +50 +53 опасность
перегрева
1009.9 1009.2 +28.6 +34.5
06 20.05 Ю 4 10 км 3/3 600 м
[Cu hum]
+34.2 +27.1 67 +53 +62 опасность
перегрева
1009.7 1009.0
09 20.05 Ю 3 10 км 1/0
[Ci fib]
+34.0 +27.1 67 +52 +64 опасность
перегрева
1006.9 1006.2
12 20.05 Ю 4 10 км 3/3 600 м
[Sc]
+32.6 +27.4 74 +51 +52 опасность
перегрева
1006.2 1005.5 +34.4
15 20.05 Ю 3 4000 м 1/1 600 м
[Sc]
+30.8 +26.9 80 +48 +48 опасность
перегрева
1007.4 1006.7
18 20.05 Ю 3 4000 м 4/4 600 м
[Sc]
+30.4 +27.4 84 +49 +49 опасность
перегрева
1008.1 1007.4
21 20.05 Ю 3 4000 м 4/4 600 м
[Sc]
+29.6 +26.2 82 +45 +45 опасность
перегрева
1007.2 1006.5
00 21.05 Ю 3 4000 м 3/3 600 м
[Sc]
+29.8 +25.6 78 +44 +44 опасность
перегрева
1008.0 1007.3
03 21.05 З 4 10 км 1/1 600 м
[Sc]
+32.4 +26.0 69 +48 +53 опасность
перегрева
1010.2 1009.5 +28.6 +34.4
06 21.05 Ю 2 10 км 1/1 600 м
[Cu hum]
+34.0 +27.4 69 +53 +72 опасность
перегрева
1009.5 1008.8
09 21.05 Ю 5 10 км 1/0
[Ci fib]
+34.2 +27.6 69 +54 +62 опасность
перегрева
1007.5 1006.8
12 21.05 Ю 3 10 км 3/0
[Ci fib]
+32.6 +28.0 77 +53 +54 опасность
перегрева
1006.5 1005.8 +34.5
15 21.05 Ю 5 4000 м 1/0
[Ci fib]
+31.2 +27.1 79 +49 +49 опасность
перегрева
1008.9 1008.2
18 21.05 Ю 4 4000 м 3/3 600 м
[Sc]
+30.6 +26.7 80 +48 +48 опасность
перегрева
1008.8 1008.1
21 21.05 Ю 3 4000 м 3/1 600 м
[Sc Ci fib]
+30.4 +26.8 81 +47 +47 опасность
перегрева
1007.4 1006.7
00 22.05 Ю 3 4000 м 1/1 600 м
[Sc]
+30.2 +26.6 81 +47 +47 опасность
перегрева
1007.8 1007.1
03 22.05 Ю 3 10 км 3/3 600 м
[Sc]
+32.2 +27.0 74 +50 +54 опасность
перегрева
1008.9 1008.2 +29.0 +34.5
06 22.05 Ю 5 10 км 4/3 600 м
[Sc Ci fib]
+34.0 +27.1 67 +52 +60 опасность
перегрева
1008.9 1008.2
09 22.05 Ю 4 10 км 1/1 600 м
[Cu hum]
+34.6 +27.5 67 +54 +63 опасность
перегрева
1006.2 1005.5
12 22.05 Ю 3 10 км 3/0
[Ci fib]
+32.8 +27.6 74 +52 +53 опасность
перегрева
1005.4 1004.7 +34.5
15 22.05 Ю 3 4000 м 5/5 600 м
[Sc]
+30.8 +27.2 81 +49 +49 опасность
перегрева
1007.4 1006.7
18 22.05 Ю 5 4000 м 5/5 600 м
[Sc]
+30.6 +26.4 78 +47 +47 опасность
перегрева
1008.2 1007.5
21 22.05 Ю 3 4000 м 5/5 600 м
[Sc]
+30.4 +26.5 80 +47 +47 опасность
перегрева
1006.4 1005.7
00 23.05 Ю 3 4000 м 4/4 600 м
[Sc]
+30.2 +25.7 77 +45 +45 опасность
перегрева
1007.0 1006.3
03 23.05 ЮЗ 3 10 км 5/4 600 м
[Sc diur, vesp Ci fib]
+32.0 +26.1 71 +48 +51 опасность
перегрева
1009.3 1008.6 +29.0 +34.5
06 23.05 Ю 3 10 км 4/3 600 м
[Sc diur, vesp Ci fib]
+34.0 +27.2 68 +53 +65 опасность
перегрева
1009.0 1008.3
09 23.05 Ю 3 10 км 1/1 600 м
[Sc diur, vesp]
+34.4 +27.6 68 +54 +66 опасность
перегрева
1006.0 1005.3
12 23.05 Ю 5 10 км 5/4 600 м
[Sc diur, vesp Ci fib]
+32.2 +27.8 78 +52 +53 опасность
перегрева
1005.3 1004.6 +34.5
15 23.05 Ю 5 4000 м 5/5 600 м
[Sc diur, vesp]
+31.0 +26.8 78 +48 +48 опасность
перегрева
1008.3 1007.6
18 23.05 Ю 6 4000 м 4/4 600 м
[Sc diur, vesp]
+30.8 +26.6 78 +47 +47 опасность
перегрева
1008.9 1008.2
21 23.05 Ю 4 4000 м 9/9 600 м
[Sc diur, vesp]
+30.6 +26.1 77 +46 +46 опасность
перегрева
1007.4 1006.7
00 24.05 Ю 2 4000 м 6/6 600 м
[Sc diur, vesp]
+30.4 +26.5 80 +47 +47 опасность
перегрева
1007.5 1006.8
03 24.05 Ю 2 10 км 9/4 600 м
[Sc Cs]
+32.4 +26.9 73 +50 +54 опасность
перегрева
1009.6 1008.9 +29.4 +34.5
06 24.05 Ю 3 10 км 6/1 600 м
[Sc diur, vesp Cs]
+34.0 +26.8 66 +51 +65 опасность
перегрева
1009.4 1008.7
09 24.05 Ю 5 10 км 4/1 600 м
[Sc diur, vesp Ci sp]
+34.0 +27.4 69 +53 +60 опасность
перегрева
1007.1 1006.4
12 24.05 Ю 6 10 км 5/1 600 м
[Sc diur, vesp Cs]
+31.8 +26.8 75 +49 +50 опасность
перегрева
1006.2 1005.5 +34.4
15 24.05 Ю 6 4000 м 4/4 600 м
[Sc]
+31.0 +26.6 77 +47 +47 опасность
перегрева
1008.2 1007.5
18 24.05 Ю 5 4000 м 4/4 600 м
[Sc diur, vesp]
+30.8 +26.6 78 +47 +47 опасность
перегрева
1008.5 1007.8
21 24.05 Ю 4 4000 м 3/3 600 м
[Sc]
+30.6 +26.4 78 +47 +47 опасность
перегрева
1007.0 1006.3
00 25.05 Ю 2 4000 м 6/1 600 м
[Sc diur, vesp Cs]
+30.0 +26.7 83 +47 +47 опасность
перегрева
1007.3 1006.6
03 25.05 Ю 3 10 км 5/5 600 м
[Sc diur, vesp]
+32.2 +27.0 74 +50 +53 опасность
перегрева
1008.3 1007.6 +29.0 +34.4
06 25.05 Ю 5 10 км 4/4 600 м
[Sc]
+34.2 +27.1 67 +53 +60 опасность
перегрева
1007.7 1007.0
09 25.05 Ю 5 10 км 3/3 600 м
[Sc]
+34.0 +27.1 67 +52 +58 опасность
перегрева
1005.5 1004.8
12 25.05 Ю 5 10 км 4/1 600 м
[Sc Ci fib]
+32.0 +27.3 76 +50 +51 опасность
перегрева
1004.7 1004.0 +34.1
15 25.05 Ю 5 4000 м 5/5 600 м
[Sc]
+30.6 +27.0 81 +48 +48 опасность
перегрева
1006.8 1006.1
18 25.05 Ю 5 4000 м 6/6 600 м
[Sc]
+30.4 +26.5 80 +47 +47 опасность
перегрева
1006.7 1006.0
21 25.05 Ю 5 4000 м 8/6 600 м
[Sc Ci fib]
+30.0 +26.1 80 +45 +45 опасность
перегрева
1004.9 1004.2
00 26.05 Ю 3 4000 м 5/3 600 м
[Sc Ci fib]
+30.0 +26.1 80 +45 +45 опасность
перегрева
1005.7 1005.0
03 26.05 З 5 10 км 1/1 600 м
[Sc]
+32.2 +27.0 74 +50 +53 опасность
перегрева
1007.5 1006.8 +28.6 +34.1
06 26.05 Ю 5 10 км 1/0
[Ci fib]
+33.6 +27.6 71 +53 +64 опасность
перегрева
1006.4 1005.7
09 26.05 Ю 6 10 км 1/0
[Ci fib]
+34.2 +27.6 69 +54 +60 опасность
перегрева
1004.3 1003.6
12 26.05 Ю 6 10 км 3/1 600 м
[Sc Ci fib]
+32.2 +27.5 76 +51 +52 опасность
перегрева
1004.0 1003.3 +34.4
15 26.05 Ю 6 4000 м 1/1 600 м
[Sc]
+30.8 +26.6 78 +47 +47 опасность
перегрева
1006.1 1005.4

 

Местоположение метеостанции Адирампаттинам (Тамилнад, Индия): широта 10.33 долгота 79.38 высота над уровнем моря 6 м.

В архиве по умолчанию представлена погода в Адирампаттинаме за последнюю неделю. Архивные данные за месяц целиком и за предыдущие месяцы, начиная с января 2011 года, Вы можете получить, выбрав интересующий диапазон дат из раскрывающегося списка и нажав кнопку "Ввод!".


*Определитесь, кто Вы:
робот инопланетянин человек

Внимание! Время в таблицах - всемирное. Для получения местного времени необходимо прибавить поправку, которая равна 5.5 ч.

Смотрите также архив погоды в соседних городах и на ближайших метеорологических станциях:

Погода в Танджавуре (Тамилнад, Индия) (57 км)
Погода в Нагапаттинаме (Тамилнад, Индия) (71 км)
Погода в Тонди (Тамилнад, Индия) (77 км)
Погода в Кудумиянмалае (Тамилнад, Индия) (78 км)
Погода в Карайкале (Пондичерри, Индия) (82 км)
Погода в Тиручирапалли (Тамилнад, Индия) (87 км)
Погода в Джафне (Шри Ланка) (103 км)
Погода на Памбане (Тамилнад, Индия) (118 км)
Погода в Парангипеттае (Тамилнад, Индия) (137 км)
Погода в Мадурае (Тамилнад, Индия) (145 км)

Пояснения к столбцам:

Ветер - указаны скорость ветра в м/с - средняя за 10 мин, порывы в срок и между сроками (в фигурных скобках) и направление, откуда дует ветер: С - северный, СВ - северо-восточный, В - восточный, ЮВ - юго-восточный, Ю - южный, ЮЗ - юго-западный, З - западный, СЗ - северо-западный.
Видимость - горизонтальная дальность видимости в метрах или километрах. При видимости от 1 до 10 км при отсутствии осадков обычно наблюдается дымка, при ухудшении видимости до 1 км и менее - туман. В сухую погоду видимость может ухудшаться дымом, пылью или мглою.
Явления - указаны атмосферные явления, наблюдавшиеся в срок или в последний час перед сроком; фигурными скобками обозначены явления, наблюдавшиеся между сроками (за 1-3 часа до срока); квадратными скобками обозначены град или гололедные отложения с указанием их диаметра в мм.
Облачность - указаны через наклонную черту общая и нижняя облачность в баллах и высота нижней границы облаков в метрах; квадратными скобками обозначены формы облаков: Ci - перистые, Cs - перисто-слоистые, Cc - перисто-кучевые, Ac - высококучевые, As - высокослоистые, Sc - слоисто-кучевые, Ns - слоисто-дождевые, Cu - кучевые, Cb - кучево-дождевые. Подробнее классификацию облаков см. в Атласе облаков (PDF).
T - Температура воздуха - температура, измеренная на высоте 2 м над землей.
Td - Температура точки росы - температура, при понижении до которой содержащийся в воздухе водяной пар достигнет насыщения.
f - Относительная влажность воздуха - влажноcть воздуха, измеренная на высоте 2 м над землей.
Te - Эффективная температура - температура, которую ощущает одетый по сезону человек в тени. Характеристика душности погоды. При расчете учитывается влияние влажности воздуха и скорости ветра на теплоощущения человека.
Tes - Эффективная температура на солнце - температура, которую ощущает человек, с поправкой на солнечный нагрев. Характеристика знойности погоды. Зависит от высоты солнца над горизонтом, облачности и скорости ветра. Ночью, в пасмурную погоду, а также при ветре 12 м/с и более поправка равна нулю.
P - Атмосферное давление - приведенное к уровню моря атмосферное давление.
Po - Атмосферное давление - измеренное на уровне метеостанции атмосферное давление.
Tmin - Минимальная температура - минимум температуры воздуха на высоте 2 м над землей.
Tmax - Максимальная температура - максимум температуры воздуха на высоте 2 м над землей.
R - Количество осадков - Количество выпавших осадков за период времени, мм. При наведении курсора мыши на число - период времени, за который выпало указанное количество осадков.
R24 - Количество осадков - Количество выпавших осадков за 24 часа, мм.
S - Снежный покров - Высота снежного покрова, см. При наведении курсора мыши на число - состояние снежного покрова и степень покрытия местности в баллах.